FIN20G EFKT-EFHK

Flight info

Callsign FIN20G
Flight time 1h 13m
Altitude 37000
Route TUGPU Y86 LUSEP
Aircraft A320/M-SDE3FGHIRWY/LB1

Departure

Time 2026-04-16 11:48
Airport Kittilä International Airport (EFKT)

Arrival

Time 2026-04-16 13:01
Airport Helsinki Vantaa Airport (EFHK)
Time Latitude Longitude Altitude Speed Heading
2026-04-16 11:24 67.69480 24.85733 642 ft 0 kts 123°
2026-04-16 11:42 67.69488 24.85700 641 ft 4 kts 121°
2026-04-16 11:42 67.69501 24.85639 642 ft 4 kts 120°
2026-04-16 11:43 67.69515 24.85580 642 ft 4 kts 129°
2026-04-16 11:43 67.69534 24.85530 642 ft 4 kts 146°
2026-04-16 11:43 67.69554 24.85504 640 ft 1 kts 166°
2026-04-16 11:43 67.69558 24.85501 639 ft 0 kts 166°
2026-04-16 11:46 67.69557 24.85500 639 ft 0 kts 171°
2026-04-16 11:46 67.69533 24.85407 642 ft 15 kts 247°
2026-04-16 11:47 67.69504 24.85140 639 ft 13 kts 255°
2026-04-16 11:47 67.69520 24.85063 644 ft 5 kts 325°
2026-04-16 11:47 67.69534 24.85054 639 ft 4 kts 347°
2026-04-16 11:47 67.69860 24.84846 639 ft 93 kts 346°
2026-04-16 11:48 67.70725 24.84277 767 ft 148 kts 346°
2026-04-16 11:48 67.71761 24.83763 1567 ft 156 kts 352°
2026-04-16 11:48 67.72875 24.83426 2396 ft 172 kts
2026-04-16 11:48 67.74037 24.84605 2812 ft 198 kts 39°
2026-04-16 11:49 67.74717 24.88025 3191 ft 233 kts 79°
2026-04-16 11:49 67.74484 24.92450 3842 ft 253 kts 103°
2026-04-16 11:49 67.73859 24.96808 4721 ft 260 kts 110°
2026-04-16 11:49 67.73093 25.01198 5614 ft 265 kts 114°
2026-04-16 11:50 67.71940 25.05073 6464 ft 276 kts 142°
2026-04-16 11:50 67.70171 25.07284 7087 ft 289 kts 168°
2026-04-16 11:50 67.68179 25.08442 7875 ft 296 kts 168°
2026-04-16 11:50 67.66153 25.09684 8703 ft 302 kts 168°
2026-04-16 11:51 67.64094 25.10984 9515 ft 307 kts 168°
2026-04-16 11:51 67.61996 25.12322 10320 ft 313 kts 168°
2026-04-16 11:51 67.59845 25.13695 10821 ft 329 kts 168°
2026-04-16 11:51 67.57543 25.15157 11160 ft 348 kts 167°
2026-04-16 11:52 67.55162 25.16673 11841 ft 355 kts 168°
2026-04-16 11:52 67.52773 25.18195 12583 ft 360 kts 168°
2026-04-16 11:52 67.50319 25.19778 13326 ft 365 kts 168°
2026-04-16 11:52 67.47836 25.21394 14072 ft 370 kts 168°
2026-04-16 11:53 67.45325 25.23029 14704 ft 375 kts 168°
2026-04-16 11:53 67.42764 25.24686 15323 ft 380 kts 168°
2026-04-16 11:53 67.40173 25.26349 15943 ft 386 kts 169°
2026-04-16 11:53 67.37542 25.28027 16518 ft 391 kts 169°
2026-04-16 11:54 67.34906 25.29700 17109 ft 396 kts 169°
2026-04-16 11:54 67.32210 25.31413 17707 ft 401 kts 169°
2026-04-16 11:54 67.29474 25.33085 18287 ft 406 kts 173°
2026-04-16 11:54 67.26662 25.33875 18827 ft 407 kts 181°
2026-04-16 11:55 67.23813 25.34360 19358 ft 411 kts 181°
2026-04-16 11:55 67.20948 25.34838 19902 ft 414 kts 181°
2026-04-16 11:55 67.18055 25.35319 20446 ft 416 kts 181°
2026-04-16 11:55 67.15164 25.35806 21108 ft 417 kts 181°
2026-04-16 11:56 67.12258 25.36303 21677 ft 420 kts 181°
2026-04-16 11:56 67.09358 25.36798 22205 ft 424 kts 181°
2026-04-16 11:56 67.06400 25.37299 22746 ft 427 kts 181°
2026-04-16 11:56 67.03408 25.37803 23280 ft 431 kts 181°
2026-04-16 11:57 67.00392 25.38308 23805 ft 435 kts 181°
2026-04-16 11:57 66.97361 25.38807 24261 ft 438 kts 181°
2026-04-16 11:57 66.94309 25.39307 24699 ft 441 kts 181°
2026-04-16 11:57 66.91237 25.39813 25128 ft 444 kts 181°
2026-04-16 11:58 66.88142 25.40322 25550 ft 447 kts 181°
2026-04-16 11:58 66.85021 25.40840 25956 ft 450 kts 181°
2026-04-16 11:58 66.81917 25.41355 26295 ft 453 kts 180°
2026-04-16 11:58 66.78780 25.41875 26823 ft 451 kts 180°
2026-04-16 11:59 66.75636 25.42397 27253 ft 453 kts 180°
2026-04-16 11:59 66.72483 25.42915 27634 ft 456 kts 180°
2026-04-16 11:59 66.69302 25.43429 27998 ft 459 kts 180°
2026-04-16 11:59 66.66095 25.43941 28351 ft 462 kts 180°
2026-04-16 12:00 66.62867 25.44457 28707 ft 465 kts 180°
2026-04-16 12:00 66.59633 25.44978 29053 ft 468 kts 180°
2026-04-16 12:00 66.56372 25.45505 29392 ft 471 kts 180°
2026-04-16 12:00 66.53138 25.46026 29718 ft 473 kts 180°
2026-04-16 12:01 66.49828 25.46555 30065 ft 476 kts 180°
2026-04-16 12:01 66.46505 25.47080 30363 ft 479 kts 180°
2026-04-16 12:01 66.43176 25.47601 30653 ft 479 kts 179°
2026-04-16 12:02 66.36552 25.48646 31317 ft 479 kts 179°
2026-04-16 12:02 66.33216 25.49177 31598 ft 481 kts 179°
2026-04-16 12:02 66.29862 25.49714 31863 ft 483 kts 179°
2026-04-16 12:02 66.26501 25.50245 32109 ft 484 kts 179°
2026-04-16 12:03 66.23134 25.50774 32342 ft 486 kts 179°
2026-04-16 12:03 66.19755 25.51302 32678 ft 485 kts 179°
2026-04-16 12:03 66.16387 25.51825 33034 ft 484 kts 179°
2026-04-16 12:03 66.13029 25.52344 33370 ft 483 kts 179°
2026-04-16 12:04 66.10807 25.52688 33590 ft 483 kts 179°
2026-04-16 12:04 66.07459 25.53181 33914 ft 480 kts 180°
2026-04-16 12:04 66.04129 25.53388 34375 ft 475 kts 182°
2026-04-16 12:04 65.99764 25.53198 34806 ft 472 kts 185°
2026-04-16 12:05 65.96482 25.52849 35083 ft 471 kts 185°
2026-04-16 12:05 65.94273 25.52583 35266 ft 470 kts 185°
2026-04-16 12:05 65.91034 25.52216 35521 ft 470 kts 185°
2026-04-16 12:05 65.87770 25.51915 35764 ft 469 kts 184°
2026-04-16 12:06 65.84504 25.51685 36006 ft 469 kts 184°
2026-04-16 12:06 65.81232 25.51501 36251 ft 468 kts 184°
2026-04-16 12:06 65.78003 25.51342 36483 ft 468 kts 183°
2026-04-16 12:06 65.74749 25.51183 36706 ft 467 kts 184°
2026-04-16 12:07 65.71484 25.51012 36929 ft 467 kts 184°
2026-04-16 12:07 65.68228 25.50828 37148 ft 466 kts 184°
2026-04-16 12:07 65.64981 25.50630 37263 ft 468 kts 184°
2026-04-16 12:07 65.61717 25.50425 37275 ft 469 kts 184°
2026-04-16 12:08 65.55217 25.50031 37272 ft 469 kts 184°
2026-04-16 12:08 65.48707 25.49662 37285 ft 469 kts 184°
2026-04-16 12:09 65.42151 25.49287 37283 ft 469 kts 184°
2026-04-16 12:09 65.35650 25.48916 37280 ft 469 kts 183°
2026-04-16 12:10 65.29123 25.48541 37294 ft 468 kts 183°
2026-04-16 12:10 65.22589 25.48154 37306 ft 468 kts 183°
2026-04-16 12:11 65.16119 25.47768 37296 ft 468 kts 183°
2026-04-16 12:11 65.09603 25.47388 37292 ft 468 kts 183°
2026-04-16 12:12 65.03094 25.47011 37270 ft 466 kts 183°
2026-04-16 12:12 64.96615 25.46645 37295 ft 465 kts 183°
2026-04-16 12:13 64.90178 25.46293 37296 ft 463 kts 183°
2026-04-16 12:13 64.83721 25.45937 37296 ft 462 kts 183°
2026-04-16 12:14 64.77319 25.45560 37298 ft 462 kts 183°
2026-04-16 12:14 64.70894 25.45199 37298 ft 462 kts 183°
2026-04-16 12:15 64.64489 25.44851 37305 ft 459 kts 183°
2026-04-16 12:15 64.58104 25.44483 37313 ft 457 kts 183°
2026-04-16 12:16 64.51780 25.44127 37309 ft 456 kts 183°
2026-04-16 12:16 64.45440 25.43789 37313 ft 455 kts 183°
2026-04-16 12:17 64.39112 25.43450 37301 ft 455 kts 183°
2026-04-16 12:17 64.32797 25.43094 37293 ft 453 kts 183°
2026-04-16 12:18 64.26496 25.42743 37309 ft 451 kts 183°
2026-04-16 12:18 64.20258 25.42413 37301 ft 450 kts 183°
2026-04-16 12:19 64.13993 25.42069 37292 ft 449 kts 183°
2026-04-16 12:19 64.07740 25.41730 37281 ft 448 kts 183°
2026-04-16 12:20 64.01525 25.41410 37265 ft 448 kts 183°
2026-04-16 12:20 63.95276 25.41087 37254 ft 449 kts 183°
2026-04-16 12:21 63.89001 25.40741 37253 ft 450 kts 183°
2026-04-16 12:21 63.82722 25.40414 37249 ft 451 kts 183°
2026-04-16 12:22 63.76490 25.40097 37249 ft 451 kts 183°
2026-04-16 12:22 63.70211 25.39784 37251 ft 451 kts 183°
2026-04-16 12:23 63.63918 25.39461 37250 ft 450 kts 183°
2026-04-16 12:23 63.57692 25.39119 37263 ft 450 kts 183°
2026-04-16 12:24 63.51420 25.38799 37273 ft 449 kts 183°
2026-04-16 12:24 63.45200 25.38480 37263 ft 449 kts 183°
2026-04-16 12:25 63.38954 25.38161 37266 ft 448 kts 183°
2026-04-16 12:25 63.32694 25.37844 37249 ft 448 kts 183°
2026-04-16 12:26 63.26505 25.37516 37265 ft 447 kts 183°
2026-04-16 12:26 63.20266 25.37193 37267 ft 447 kts 183°
2026-04-16 12:27 63.14075 25.36889 37261 ft 447 kts 183°
2026-04-16 12:27 63.07840 25.36578 37262 ft 447 kts 183°
2026-04-16 12:28 63.01617 25.36262 37239 ft 447 kts 182°
2026-04-16 12:28 62.95399 25.35948 37247 ft 447 kts 183°
2026-04-16 12:29 62.89211 25.35634 37246 ft 447 kts 183°
2026-04-16 12:29 62.82996 25.35332 37250 ft 447 kts 182°
2026-04-16 12:30 62.76744 25.35024 37249 ft 447 kts 182°
2026-04-16 12:30 62.70528 25.34708 37248 ft 448 kts 183°
2026-04-16 12:31 62.64319 25.34399 37241 ft 448 kts 182°
2026-04-16 12:31 62.58079 25.34077 37241 ft 448 kts 182°
2026-04-16 12:32 62.51845 25.33751 37238 ft 448 kts 183°
2026-04-16 12:32 62.45616 25.33448 37237 ft 447 kts 182°
2026-04-16 12:33 62.39390 25.33163 37235 ft 448 kts 181°
2026-04-16 12:33 62.33156 25.32887 37233 ft 448 kts 182°
2026-04-16 12:34 62.26924 25.32587 37234 ft 448 kts 182°
2026-04-16 12:34 62.20694 25.32276 37238 ft 448 kts 182°
2026-04-16 12:35 62.14471 25.31988 37236 ft 447 kts 182°
2026-04-16 12:35 62.08252 25.31703 37227 ft 447 kts 182°
2026-04-16 12:36 62.02060 25.31412 37222 ft 447 kts 181°
2026-04-16 12:36 61.95839 25.31120 37237 ft 446 kts 181°
2026-04-16 12:37 61.89630 25.30818 37240 ft 445 kts 181°
2026-04-16 12:37 61.83431 25.30525 37237 ft 445 kts 181°
2026-04-16 12:38 61.77235 25.30227 37213 ft 446 kts 181°
2026-04-16 12:38 61.71016 25.29936 36441 ft 450 kts 181°
2026-04-16 12:39 61.67891 25.29797 35374 ft 456 kts 181°
2026-04-16 12:39 61.64701 25.29655 34444 ft 457 kts 181°
2026-04-16 12:39 61.61519 25.29511 33538 ft 455 kts 181°
2026-04-16 12:39 61.58368 25.29363 32686 ft 451 kts 181°
2026-04-16 12:40 61.55231 25.29214 31877 ft 448 kts 181°
2026-04-16 12:40 61.52128 25.29066 31125 ft 441 kts 181°
2026-04-16 12:40 61.49094 25.28927 30275 ft 429 kts 181°
2026-04-16 12:40 61.46186 25.28791 29753 ft 409 kts 181°
2026-04-16 12:41 61.43416 25.28660 29227 ft 401 kts 181°
2026-04-16 12:41 61.40640 25.28527 28717 ft 397 kts 181°
2026-04-16 12:41 61.37891 25.28394 28221 ft 393 kts 180°
2026-04-16 12:41 61.35170 25.28265 27714 ft 389 kts 179°
2026-04-16 12:42 61.32472 25.28143 27219 ft 386 kts 179°
2026-04-16 12:42 61.29794 25.28026 26752 ft 383 kts 178°
2026-04-16 12:42 61.27131 25.27910 26276 ft 380 kts 179°
2026-04-16 12:42 61.24490 25.27796 25825 ft 378 kts 179°
2026-04-16 12:43 61.21858 25.27681 25376 ft 375 kts 179°
2026-04-16 12:43 61.19280 25.27568 24936 ft 373 kts 179°
2026-04-16 12:43 61.16689 25.27451 24491 ft 370 kts 178°
2026-04-16 12:43 61.14129 25.27337 24058 ft 367 kts 179°
2026-04-16 12:44 61.11580 25.27222 23598 ft 365 kts 179°
2026-04-16 12:44 61.09047 25.27104 23126 ft 362 kts 179°
2026-04-16 12:44 61.06545 25.26988 22671 ft 358 kts 179°
2026-04-16 12:44 61.04051 25.26872 22249 ft 355 kts 178°
2026-04-16 12:45 61.01595 25.26764 21811 ft 352 kts 178°
2026-04-16 12:45 60.99150 25.26656 21368 ft 351 kts 179°
2026-04-16 12:45 60.96717 25.26543 20923 ft 349 kts 178°
2026-04-16 12:45 60.94299 25.26451 20479 ft 346 kts 177°
2026-04-16 12:46 60.91899 25.26511 20034 ft 344 kts 175°
2026-04-16 12:46 60.89511 25.26675 19599 ft 342 kts 175°
2026-04-16 12:46 60.87140 25.26879 19253 ft 338 kts 175°
2026-04-16 12:46 60.84826 25.27082 19059 ft 329 kts 174°
2026-04-16 12:47 60.82585 25.27267 18821 ft 324 kts 175°
2026-04-16 12:47 60.80341 25.27439 18482 ft 323 kts 175°
2026-04-16 12:47 60.78094 25.27599 17995 ft 323 kts 175°
2026-04-16 12:47 60.75854 25.27746 17555 ft 322 kts 175°
2026-04-16 12:48 60.73631 25.27885 17242 ft 316 kts 175°
2026-04-16 12:48 60.71448 25.28020 16542 ft 313 kts 175°
2026-04-16 12:48 60.69293 25.28153 16035 ft 308 kts 175°
2026-04-16 12:48 60.67162 25.28283 15565 ft 305 kts 175°
2026-04-16 12:49 60.65733 25.28372 15253 ft 303 kts 175°
2026-04-16 12:49 60.62936 25.28503 14662 ft 306 kts 180°
2026-04-16 12:49 60.61541 25.28128 14493 ft 305 kts 189°
2026-04-16 12:49 60.59526 25.26638 14032 ft 312 kts 206°
2026-04-16 12:50 60.57771 25.24083 13742 ft 312 kts 220°
2026-04-16 12:50 60.56291 25.20853 13356 ft 310 kts 224°
2026-04-16 12:50 60.54841 25.17607 12686 ft 306 kts 224°
2026-04-16 12:50 60.53409 25.14413 12035 ft 303 kts 224°
2026-04-16 12:51 60.52024 25.11323 11495 ft 297 kts 224°
2026-04-16 12:51 60.50639 25.08242 11034 ft 293 kts 223°
2026-04-16 12:51 60.49268 25.05196 10597 ft 293 kts 223°
2026-04-16 12:51 60.47893 25.02146 10264 ft 291 kts 223°
2026-04-16 12:52 60.46530 24.99125 9945 ft 288 kts 222°
2026-04-16 12:52 60.45176 24.96135 9266 ft 286 kts 222°
2026-04-16 12:52 60.43821 24.93151 8802 ft 288 kts 222°
2026-04-16 12:52 60.42466 24.90170 8365 ft 287 kts 222°
2026-04-16 12:53 60.41116 24.87197 7929 ft 287 kts 222°
2026-04-16 12:53 60.39769 24.84229 7502 ft 286 kts 222°
2026-04-16 12:53 60.38438 24.81299 7078 ft 286 kts 223°
2026-04-16 12:53 60.37085 24.78327 6639 ft 286 kts 223°
2026-04-16 12:54 60.35735 24.75373 6186 ft 285 kts 223°
2026-04-16 12:54 60.34388 24.72423 5753 ft 285 kts 223°
2026-04-16 12:54 60.33047 24.69489 5354 ft 283 kts 223°
2026-04-16 12:54 60.31698 24.66546 4894 ft 285 kts 223°
2026-04-16 12:55 60.30362 24.63635 4551 ft 280 kts 223°
2026-04-16 12:55 60.29031 24.60767 4103 ft 279 kts 220°
2026-04-16 12:55 60.27440 24.58830 3589 ft 258 kts 190°
2026-04-16 12:55 60.25749 24.58729 3113 ft 240 kts 161°
2026-04-16 12:56 60.24324 24.60052 3037 ft 213 kts 140°
2026-04-16 12:56 60.23294 24.62077 3042 ft 202 kts 123°
2026-04-16 12:56 60.22662 24.64483 3027 ft 188 kts 107°
2026-04-16 12:56 60.22416 24.67004 2946 ft 181 kts 92°
2026-04-16 12:57 60.22525 24.69495 2813 ft 178 kts 77°
2026-04-16 12:57 60.22967 24.71794 2655 ft 174 kts 62°
2026-04-16 12:57 60.23677 24.73731 2419 ft 171 kts 49°
2026-04-16 12:57 60.24474 24.75459 2188 ft 166 kts 50°
2026-04-16 12:58 60.25241 24.77133 1961 ft 155 kts 49°
2026-04-16 12:58 60.25923 24.78622 1774 ft 139 kts 49°
2026-04-16 12:58 60.26568 24.80034 1583 ft 132 kts 48°
2026-04-16 12:58 60.27187 24.81388 1403 ft 131 kts 49°
2026-04-16 12:59 60.27798 24.82725 1225 ft 129 kts 50°
2026-04-16 12:59 60.28398 24.84038 1039 ft 129 kts 49°
2026-04-16 12:59 60.29018 24.85395 846 ft 132 kts 47°
2026-04-16 13:00 60.30236 24.88071 457 ft 131 kts 46°
2026-04-16 13:00 60.30845 24.89402 295 ft 130 kts 46°
2026-04-16 13:00 60.31449 24.90732 153 ft 127 kts 46°
2026-04-16 13:00 60.31979 24.91888 151 ft 96 kts 47°
2026-04-16 13:01 60.32364 24.92745 171 ft 58 kts 49°
2026-04-16 13:01 60.32461 24.93232 175 ft 15 kts 90°
2026-04-16 13:01 60.32485 24.93460 173 ft 18 kts 77°
2026-04-16 13:01 60.32515 24.93731 171 ft 21 kts 77°
2026-04-16 13:02 60.32579 24.94008 170 ft 23 kts 47°
2026-04-16 13:02 60.32687 24.94245 172 ft 23 kts 47°
2026-04-16 13:02 60.32797 24.94486 174 ft 23 kts 47°
2026-04-16 13:02 60.32903 24.94720 175 ft 16 kts 47°
2026-04-16 13:03 60.32896 24.94906 175 ft 17 kts 146°
2026-04-16 13:03 60.32791 24.94980 177 ft 14 kts 162°
2026-04-16 13:03 60.32685 24.95049 180 ft 21 kts 162°
2026-04-16 13:03 60.32520 24.95157 180 ft 26 kts 162°
2026-04-16 13:04 60.32348 24.95273 177 ft 23 kts 155°
2026-04-16 13:04 60.32216 24.95493 174 ft 26 kts 138°
2026-04-16 13:04 60.32080 24.95744 174 ft 27 kts 137°
2026-04-16 13:04 60.31943 24.96000 169 ft 22 kts 137°
2026-04-16 13:05 60.31858 24.96179 167 ft 13 kts 111°
2026-04-16 13:05 60.31871 24.96360 167 ft 14 kts 52°
2026-04-16 13:05 60.31905 24.96481 167 ft 8 kts 121°
2026-04-16 13:05 60.31872 24.96545 167 ft 1 kts 137°
2026-04-16 13:06 60.31871 24.96546 167 ft 0 kts 137°